• In Hungary
  • List of Countries
  • For 7 days
  • Water Temperature
  • Satellite Maps
  • Weather Map
  • News
  • Weather Widgets
  • user-avatar
    Login

    Hourly Weather Botogol

    Today, 25 June, Monday

    Time Temperature Precipitation Wind Pressure Humidity
    00:00 +10°C° 0 mm 1 mps 619 mmHg 84%
    01:00 +10°C° 0 mm 1 mps 619 mmHg 84%
    02:00 +9°C° 0 mm 1 mps 619 mmHg 85%
    03:00 +9°C° 0 mm 1 mps 619 mmHg 86%
    04:00 +8°C° 0 mm 1 mps 619 mmHg 87%
    05:00 +10°C° 0 mm 1 mps 620 mmHg 80%
    06:00 +12°C° 0 mm 1 mps 620 mmHg 72%
    07:00 +14°C° 0 mm 1 mps 621 mmHg 64%
    08:00 +15°C° 0 mm 2 mps 621 mmHg 60%
    09:00 +16°C° 0 mm 2 mps 622 mmHg 55%
    10:00 +17°C° 0 mm 3 mps 622 mmHg 50%
    11:00 +17°C° 0.1 mm 3 mps 622 mmHg 49%
    12:00 +18°C° 0.1 mm 3 mps 622 mmHg 48%
    13:00 +18°C° 0.1 mm 4 mps 622 mmHg 46%
    14:00 +19°C° 0.1 mm 4 mps 622 mmHg 46%
    15:00 +19°C° 0.1 mm 4 mps 622 mmHg 46%
    16:00 +19°C° 0.1 mm 4 mps 622 mmHg 46%
    17:00 +18°C° 0.1 mm 4 mps 622 mmHg 49%
    18:00 +18°C° 0.1 mm 4 mps 622 mmHg 53%
    19:00 +17°C° 0.1 mm 3 mps 622 mmHg 56%
    20:00 +14°C° 0 mm 3 mps 622 mmHg 65%
    21:00 +13°C° 0 mm 2 mps 621 mmHg 74%
    22:00 +11°C° 0 mm 1 mps 621 mmHg 83%
    23:00 +11°C° 0 mm 1 mps 621 mmHg 84%

    Tomorrow, 26 June, Tuesday

    Time Temperature Precipitation Wind Pressure Humidity
    00:00 +10°C° 0 mm 1 mps 621 mmHg 86%
    01:00 +10°C° 0 mm 1 mps 621 mmHg 87%
    02:00 +9°C° 0 mm 1 mps 621 mmHg 88%
    03:00 +9°C° 0 mm 1 mps 621 mmHg 88%
    04:00 +9°C° 0 mm 1 mps 621 mmHg 88%
    05:00 +11°C° 0 mm 1 mps 622 mmHg 81%
    06:00 +13°C° 0 mm 1 mps 622 mmHg 73%
    07:00 +15°C° 0 mm 1 mps 623 mmHg 65%
    08:00 +16°C° 0 mm 1 mps 623 mmHg 59%
    09:00 +17°C° 0 mm 2 mps 624 mmHg 53%
    10:00 +19°C° 0 mm 2 mps 624 mmHg 47%
    11:00 +20°C° 0 mm 2 mps 624 mmHg 44%
    12:00 +21°C° 0 mm 2 mps 624 mmHg 41%
    13:00 +23°C° 0 mm 2 mps 625 mmHg 37%
    14:00 +23°C° 0 mm 2 mps 625 mmHg 36%
    15:00 +22°C° 0 mm 3 mps 625 mmHg 35%
    16:00 +24°C° 0 mm 3 mps 625 mmHg 34%
    17:00 +22°C° 0 mm 3 mps 624 mmHg 38%
    18:00 +21°C° 0 mm 3 mps 624 mmHg 41%
    19:00 +20°C° 0 mm 3 mps 624 mmHg 45%
    20:00 +18°C° 0 mm 2 mps 624 mmHg 55%
    21:00 +16°C° 0 mm 2 mps 623 mmHg 64%
    22:00 +13°C° 0 mm 1 mps 623 mmHg 74%
    23:00 +13°C° 0 mm 1 mps 623 mmHg 75%

    Day after tomorrow, 27 June, Wednesday

    Time Temperature Precipitation Wind Pressure Humidity
    00:00 +12°C° 0 mm 1 mps 622 mmHg 77%
    01:00 +12°C° 0 mm 1 mps 622 mmHg 79%
    02:00 +11°C° 0 mm 1 mps 622 mmHg 79%
    03:00 +11°C° 0 mm 1 mps 622 mmHg 78%
    04:00 +11°C° 0 mm 1 mps 622 mmHg 78%
    05:00 +13°C° 0 mm 1 mps 623 mmHg 69%
    06:00 +16°C° 0 mm 1 mps 624 mmHg 60%
    07:00 +19°C° 0 mm 1 mps 625 mmHg 51%
    08:00 +21°C° 0 mm 1 mps 625 mmHg 45%
    09:00 +23°C° 0 mm 1 mps 626 mmHg 38%
    10:00 +25°C° 0 mm 1 mps 626 mmHg 31%
    11:00 +26°C° 0 mm 1 mps 626 mmHg 28%
    12:00 +27°C° 0 mm 1 mps 626 mmHg 25%
    13:00 +28°C° 0 mm 1 mps 626 mmHg 22%
    14:00 +28°C° 0 mm 1 mps 626 mmHg 21%
    15:00 +28°C° 0 mm 1 mps 626 mmHg 21%
    16:00 +28°C° 0 mm 2 mps 626 mmHg 20%
    17:00 +27°C° 0 mm 2 mps 625 mmHg 25%
    18:00 +26°C° 0 mm 2 mps 625 mmHg 29%
    19:00 +25°C° 0 mm 2 mps 625 mmHg 33%
    20:00 +23°C° 0 mm 1 mps 624 mmHg 41%
    21:00 +20°C° 0 mm 1 mps 623 mmHg 49%
    22:00 +16°C° 0 mm 1 mps 622 mmHg 56%
    23:00 +16°C° 0 mm 1 mps 622 mmHg 59%

    28 June, Thursday

    Time Temperature Precipitation Wind Pressure Humidity
    00:00 +15°C° 0 mm 1 mps 622 mmHg 61%
    01:00 +14°C° 0 mm 1 mps 622 mmHg 64%
    02:00 +14°C° 0 mm 1 mps 622 mmHg 65%
    03:00 +14°C° 0 mm 1 mps 621 mmHg 66%
    04:00 +12°C° 0 mm 0 mps 621 mmHg 68%
    05:00 +16°C° 0 mm 1 mps 622 mmHg 59%
    06:00 +19°C° 0 mm 1 mps 623 mmHg 51%
    07:00 +22°C° 0 mm 1 mps 624 mmHg 42%
    08:00 +24°C° 0 mm 1 mps 624 mmHg 38%
    09:00 +25°C° 0 mm 1 mps 624 mmHg 33%
    10:00 +27°C° 0 mm 1 mps 624 mmHg 29%
    11:00 +28°C° 0 mm 1 mps 624 mmHg 27%
    12:00 +28°C° 0 mm 2 mps 624 mmHg 25%
    13:00 +29°C° 0 mm 3 mps 623 mmHg 23%
    14:00 +28°C° 0 mm 3 mps 623 mmHg 27%
    15:00 +27°C° 0 mm 3 mps 623 mmHg 30%
    16:00 +27°C° 0 mm 2 mps 622 mmHg 33%
    17:00 +25°C° 0.8 mm 3 mps 622 mmHg 42%
    18:00 +22°C° 0.8 mm 3 mps 621 mmHg 50%
    19:00 +20°C° 0.8 mm 3 mps 621 mmHg 59%
    20:00 +18°C° 0.6 mm 3 mps 620 mmHg 68%
    21:00 +17°C° 0.6 mm 2 mps 620 mmHg 78%
    22:00 +15°C° 0.6 mm 1 mps 620 mmHg 87%
    23:00 +14°C° 0.1 mm 1 mps 619 mmHg 87%

    29 June, Friday

    Time Temperature Precipitation Wind Pressure Humidity
    00:00 +14°C° 0.1 mm 1 mps 619 mmHg 88%
    01:00 +13°C° 0.1 mm 1 mps 619 mmHg 88%
    02:00 +13°C° 0.1 mm 1 mps 619 mmHg 87%
    03:00 +14°C° 0.1 mm 1 mps 618 mmHg 86%
    04:00 +14°C° 0.1 mm 1 mps 618 mmHg 85%
    05:00 +15°C° 0 mm 1 mps 619 mmHg 77%
    06:00 +18°C° 0 mm 1 mps 619 mmHg 69%
    07:00 +19°C° 0 mm 1 mps 620 mmHg 61%
    08:00 +21°C° 0 mm 1 mps 620 mmHg 54%
    09:00 +21°C° 0 mm 2 mps 620 mmHg 47%
    10:00 +24°C° 0 mm 2 mps 620 mmHg 39%
    11:00 +24°C° 0 mm 2 mps 620 mmHg 39%
    12:00 +24°C° 0 mm 2 mps 620 mmHg 39%
    13:00 +24°C° 0 mm 2 mps 619 mmHg 38%
    14:00 +24°C° 0 mm 3 mps 619 mmHg 39%
    15:00 +24°C° 0 mm 3 mps 618 mmHg 40%
    16:00 +23°C° 0 mm 4 mps 618 mmHg 41%
    17:00 +22°C° 0.3 mm 4 mps 618 mmHg 47%
    18:00 +21°C° 0.3 mm 4 mps 617 mmHg 53%
    19:00 +20°C° 0.3 mm 4 mps 617 mmHg 58%
    20:00 +19°C° 0.2 mm 3 mps 616 mmHg 66%
    21:00 +17°C° 0.2 mm 2 mps 616 mmHg 74%
    22:00 +16°C° 0.2 mm 1 mps 615 mmHg 81%
    23:00 +15°C° 0.2 mm 1 mps 615 mmHg 83%

    30 June, Saturday

    Time Temperature Precipitation Wind Pressure Humidity
    00:00 +15°C° 0.2 mm 1 mps 615 mmHg 84%
    01:00 +14°C° 0.2 mm 1 mps 615 mmHg 86%
    02:00 +14°C° 0 mm 1 mps 614 mmHg 87%
    03:00 +14°C° 0 mm 1 mps 614 mmHg 87%
    04:00 +13°C° 0 mm 1 mps 614 mmHg 88%
    05:00 +14°C° 0 mm 1 mps 614 mmHg 83%
    06:00 +16°C° 0 mm 1 mps 615 mmHg 78%
    07:00 +18°C° 0 mm 1 mps 615 mmHg 73%
    08:00 +19°C° 0.1 mm 1 mps 615 mmHg 69%
    09:00 +20°C° 0.1 mm 1 mps 616 mmHg 65%
    10:00 +20°C° 0.1 mm 1 mps 616 mmHg 61%
    11:00 +21°C° 0.8 mm 1 mps 616 mmHg 62%
    12:00 +21°C° 0.8 mm 1 mps 616 mmHg 63%
    13:00 +21°C° 0.8 mm 1 mps 616 mmHg 64%
    14:00 +20°C° 1.5 mm 1 mps 616 mmHg 67%
    15:00 +19°C° 1.5 mm 1 mps 616 mmHg 70%
    16:00 +19°C° 1.5 mm 1 mps 616 mmHg 73%
    17:00 +18°C° 1.7 mm 1 mps 616 mmHg 78%
    18:00 +16°C° 1.7 mm 1 mps 615 mmHg 83%
    19:00 +15°C° 1.7 mm 1 mps 615 mmHg 88%
    20:00 +14°C° 1.7 mm 1 mps 615 mmHg 89%
    21:00 +14°C° 1.7 mm 1 mps 615 mmHg 91%
    22:00 +13°C° 1.7 mm 1 mps 615 mmHg 92%
    23:00 +13°C° 1.5 mm 1 mps 615 mmHg 92%
    Show more